Location: Unspecified
(52.4292°N, 19.3359°E)
Time: 12:23:59
(UTC+02:00)

deb Explorer IX - Pass Details

Date: 22 May 2024
Orbit: 510 x 885 km, 38.7° (Epoch: 16 June)

Event Time Altitude Azimuth Distance (km) Brightness Sun altitude
Rises 23:07:06 0° 226° (SW) 2,964 ? -14.2°
Enters shadow 23:08:47 - 216° (SW) 2,449 ? -14.3°
Reaches altitude 10° 23:10:51 10° 197° (SSW) 1,959 - -14.5°
Maximum altitude 23:12:41 12° 173° (S) 1,763 - -14.6°
Drops below altitude 10° 23:14:29 10° 148° (SSE) 1,875 - -14.6°
Sets 23:17:53 0° 118° (ESE) 2,703 - -14.8°
